Temp
5 6 7 7 7 4 3 6 5 9 3 7 7 4 8 10 11 11 12 12 12 12 11 11 11 10 10 9 9 9 9 8 8 8 7 7 6 6 6 5 5 5 5 5
6 6 5 6 6 6 6 7 6 7 6 9 10 10 9 9 10 10 10 11 11 11 11 10 10 11 9 9 9 9 9 8 8 7 7 6 6 5 5 5 5 4 4 4
3 6 7 5 6 8 5 5 6 6 8 7 7 7 8 9 9 9 10 10 11 11 11 10 10 9 9 9 9 8 8 8 7 7 6 6 5 5 5 5 4 4 4 3
2 6 4 8 8 7 7 7 6 7 7 7 7 8 9 8 8 8 8 9 10 10 10 10 10 10 9 9 8 7 7 7 7 6 6 5 4 4 4 4 4 3 3 3
3 1 5 8 8 7 7 7 7 6 6 7 7 7 8 7 7 7 7 8 8 9 9 9 9 8 8 7 7 6 7 6 6 5 5 4 4 4 4 3 3 3 2 2
2 3 4 8 8 8 8 5 5 4 3 3 5 2 3 4 5 6 6 7 7 8 8 8 6 6 6 6 6 5 4 4 4 4 4 3 3 3 2 2 2 2 1 1
5 4 4 6 7 8 6 4 2 2 1 2 2 2 2 3 4 4 4 5 5 5 5 5 5 5 5 4 4 3 2 2 2 2 2 2 2 1 1 1 1 1 0 1
3 3 3 5 5 6 2 2 1 1 0 -0 0 0 1 -0 -0 1 2 3 3 3 2 2 2 3 2 1 1 1 -0 -1 -1 -1 0 -0 -1 -0 -0 0 0 0 0 0
4 4 3 2 1 0 -0 -0 -1 -1 -2 -2 -2 -2 -2 -3 -2 -1 -1 -1 -0 -0 0 0 -0 -1 -1 -1 -2 -2 -3 -3 -2 -2 -2 -2 -2 -1 -1 -1 -0 -0 -0 -0
4 4 1 0 -1 -1 -1 -1 -2 -2 -2 -2 -2 -2 -2 -2 -2 -2 -2 -2 -2 -2 -2 -2 -2 -2 -2 -3 -4 -4 -4 -3 -3 -2 -2 -2 -1 -1 -1 -1 -1 -1 -1 -1
4 3 1 -1 -1 -2 -2 -2 -2 -2 -2 -2 -2 -2 -2 -2 -2 -2 -2 -2 -2 -3 -3 -3 -3 -3 -3 -3 -3 -3 -3 -3 -2 -2 -2 -3 -3 -2 -2 -1 -2 -2 -2 -2
2 -1 -1 -1 -2 -2 -1 -1 -2 -2 -2 -2 -2 -2 -2 -2 -2 -2 -2 -2 -3 -2 -2 -2 -3 -3 -3 -3 -3 -3 -2 -2 -2 -3 -2 -3 -3 -2 -2 -2 -2 -3 -3 -3
-2 -2 -2 -2 -2 -2 -2 -2 -2 -2 -2 -2 -2 -2 -2 -3 -3 -3 -3 -3 -3 -3 -3 -3 -3 -3 -3 -3 -3 -3 -4 -4 -4 -3 -3 -3 -2 -2 -2 -2 -2 -3 -3 -3
-2 -2 -2 -2 -2 -2 -2 -2 -2 -2 -2 -2 -2 -2 -2 -3 -2 -3 -3 -3 -3 -3 -3 -3 -3 -3 -2 -3 -3 -3 -4 -4 -4 -4 -4 -4 -4 -5 -5 -5 -5 -4 -3 -4
-2 -2 -2 -2 -2 -1 -2 -2 -2 -2 -2 -2 -2 -2 -2 -3 -3 -3 -3 -3 -4 -4 -4 -4 -4 -3 -4 -4 -4 -4 -5 -4 -4 -4 -5 -5 -5 -5 -6 -6 -6 -6 -6 -5
-2 -2 -2 -2 -2 -2 -2 -2 -3 -2 -3 -3 -3 -3 -3 -4 -4 -4 -3 -4 -4 -4 -4 -4 -5 -4 -4 -5 -5 -5 -5 -5 -6 -6 -6 -6 -6 -6 -7 -7 -7 -7 -6 -6
-2 -2 -2 -2 -3 -3 -3 -3 -4 -4 -4 -4 -4 -4 -4 -4 -4 -4 -4 -4 -5 -5 -5 -5 -5 -5 -5 -5 -5 -5 -6 -6 -6 -6 -7 -7 -7 -7 -7 -7 -7 -7 -7 -7
-3 -3 -3 -3 -4 -4 -4 -4 -4 -4 -5 -5 -5 -5 -5 -5 -5 -5 -5 -5 -5 -5 -5 -5 -5 -5 -5 -5 -6 -6 -6 -7 -7 -7 -7 -7 -7 -7 -7 -7 -7 -7 -7 -7
-3 -4 -4 -4 -4 -5 -5 -5 -5 -6 -6 -6 -6 -6 -7 -7 -7 -7 -6 -6 -6 -6 -4 -5 -5 -6 -6 -6 -6 -7 -7 -7 -7 -7 -7 -8 -8 -7 -7 -7 -7 -7 -7 -7
-4 -4 -4 -4 -5 -5 -6 -6 -6 -6 -6 -7 -7 -7 -7 -7 -8 -8 -7 -7 -7 -6 -6 -6 -6 -6 -6 -7 -7 -7 -7 -8 -7 -7 -8 -8 -8 -7 -7 -8 -8 -8 -8 -8
-5 -5 -5 -5 -6 -6 -6 -7 -7 -7 -7 -7 -8 -8 -8 -8 -8 -8 -8 -8 -7 -7 -8 -8 -8 -8 -8 -8 -8 -8 -8 -8 -8 -8 -7 -7 -7 -7 -7 -7 -7 -8 -8 -8
-6 -6 -6 -7 -7 -7 -7 -7 -8 -8 -8 -8 -8 -8 -8 -8 -8 -8 -8 -9 -8 -8 -8 -8 -8 -8 -8 -8 -8 -8 -8 -8 -7 -8 -7 -8 -8 -8 -8 -8 -8 -8 -8 -8
-7 -7 -8 -8 -8 -8 -9 -9 -8 -8 -9 -8 -8 -8 -8 -8 -9 -9 -9 -8 -8 -8 -9 -9 -8 -9 -8 -8 -8 -8 -8 -8 -8 -8 -8 -8 -8 -8 -8 -8 -8 -8 -8 -9
-9 -9 -9 -9 -9 -10 -9 -9 -9 -9 -9 -9 -9 -9 -9 -9 -9 -9 -9 -9 -9 -9 -9 -9 -9 -9 -9 -8 -8 -8 -8 -8 -9 -8 -8 -8 -8 -8 -8 -8 -9 -9 -9 -9
-10 -10 -10 -11 -11 -10 -10 -10 -10 -9 -9 -9 -9 -9 -9 -10 -10 -10 -10 -10 -10 -10 -10 -9 -9 -9 -9 -9 -9 -9 -9 -9 -9 -8 -8 -8 -8 -8 -9 -9 -9 -9 -9 -9
-10 -11 -11 -11 -11 -11 -11 -11 -11 -11 -11 -10 -10 -10 -10 -10 -10 -10 -10 -10 -10 -10 -10 -10 -10 -10 -10 -10 -10 -9 -9 -9 -9 -8 -9 -9 -9 -9 -9 -9 -9 -10 -9 -9
-11 -12 -12 -12 -11 -12 -12 -12 -12 -12 -12 -12 -12 -11 -11 -11 -11 -11 -11 -11 -11 -11 -10 -10 -10 -10 -10 -10 -10 -9 -9 -9 -9 -9 -9 -9 -9 -9 -9 -9 -9 -9 -9 -9
Height
1520 1519 1519 1517 1516 1522 1529 1515 1520 1494 1512 1487 1491 1491 1485 1482 1479 1477 1475 1472 1471 1470 1469 1470 1470 1471 1472 1473 1474 1475 1475 1476 1475 1475 1474 1472 1471 1470 1469 1468 1466 1464 1463 1461
1519 1513 1515 1514 1507 1504 1504 1501 1503 1498 1498 1489 1490 1487 1483 1480 1478 1477 1474 1471 1468 1465 1462 1461 1464 1465 1466 1467 1468 1469 1469 1470 1470 1468 1467 1466 1465 1464 1462 1462 1461 1460 1458 1456
1529 1513 1510 1513 1495 1486 1494 1493 1492 1498 1489 1489 1488 1486 1483 1480 1478 1477 1474 1469 1466 1464 1460 1460 1461 1462 1461 1463 1464 1464 1464 1465 1464 1463 1461 1460 1458 1457 1456 1455 1454 1454 1453 1452
1529 1514 1524 1483 1477 1480 1483 1486 1486 1488 1488 1488 1487 1485 1482 1480 1478 1476 1473 1470 1467 1464 1461 1459 1458 1457 1458 1458 1459 1459 1460 1459 1458 1456 1454 1453 1451 1450 1450 1449 1448 1447 1446 1446
1522 1528 1500 1478 1475 1479 1479 1489 1487 1487 1489 1488 1487 1484 1482 1480 1477 1475 1473 1469 1466 1464 1461 1459 1457 1456 1455 1456 1456 1456 1455 1453 1452 1450 1448 1447 1445 1444 1444 1443 1442 1441 1440 1440
1523 1518 1504 1477 1474 1474 1474 1492 1489 1489 1489 1487 1484 1487 1484 1480 1476 1473 1470 1466 1462 1460 1458 1456 1456 1454 1454 1453 1452 1450 1447 1445 1444 1442 1441 1439 1439 1438 1437 1436 1436 1435 1434 1434
1502 1505 1493 1478 1477 1476 1485 1492 1489 1489 1488 1487 1487 1487 1483 1478 1474 1472 1468 1463 1460 1457 1455 1453 1450 1449 1449 1448 1445 1443 1442 1440 1438 1435 1432 1432 1432 1432 1431 1429 1428 1428 1427 1426
1503 1504 1497 1477 1477 1481 1490 1487 1488 1487 1486 1484 1482 1479 1477 1473 1470 1466 1461 1458 1456 1454 1451 1449 1447 1445 1442 1440 1439 1435 1433 1433 1433 1433 1428 1424 1424 1425 1424 1423 1421 1421 1420 1418
1487 1486 1482 1482 1483 1486 1486 1486 1486 1485 1483 1480 1477 1475 1473 1471 1468 1464 1460 1458 1455 1453 1450 1448 1445 1441 1438 1437 1435 1433 1429 1429 1429 1427 1425 1423 1422 1420 1419 1417 1414 1413 1413 1410
1485 1481 1483 1483 1484 1484 1485 1485 1482 1481 1481 1480 1476 1472 1471 1469 1468 1465 1460 1457 1454 1451 1448 1445 1442 1440 1438 1435 1432 1429 1427 1426 1425 1423 1419 1418 1417 1415 1412 1410 1409 1407 1405 1404
1475 1476 1481 1482 1482 1482 1481 1482 1482 1481 1478 1478 1479 1473 1472 1469 1467 1464 1460 1459 1456 1451 1448 1444 1441 1438 1436 1433 1430 1427 1424 1421 1420 1417 1414 1412 1412 1410 1408 1406 1402 1401 1399 1397
1473 1478 1480 1481 1481 1478 1479 1481 1482 1482 1479 1478 1477 1473 1471 1469 1466 1462 1458 1455 1451 1448 1444 1440 1436 1433 1432 1429 1425 1421 1418 1415 1412 1410 1407 1405 1404 1402 1401 1399 1395 1394 1391 1389
1477 1478 1480 1481 1480 1479 1480 1481 1481 1479 1477 1475 1473 1471 1468 1464 1461 1457 1455 1451 1447 1443 1439 1435 1431 1428 1425 1423 1420 1416 1412 1409 1405 1403 1399 1397 1396 1394 1391 1390 1386 1384 1382 1379
1476 1477 1479 1481 1480 1480 1479 1479 1478 1476 1474 1472 1469 1466 1463 1460 1455 1452 1448 1445 1441 1437 1433 1430 1425 1421 1418 1416 1412 1408 1404 1401 1399 1396 1394 1392 1389 1388 1385 1379 1374 1371 1372 1370
1478 1478 1479 1479 1478 1478 1477 1476 1474 1471 1468 1465 1462 1459 1456 1452 1448 1444 1440 1437 1434 1430 1426 1422 1418 1413 1411 1407 1403 1399 1396 1393 1390 1388 1386 1384 1382 1379 1375 1370 1366 1361 1360 1359
1479 1478 1478 1478 1476 1475 1473 1471 1468 1465 1463 1459 1456 1452 1448 1445 1441 1436 1431 1428 1425 1421 1417 1413 1409 1405 1402 1399 1395 1392 1389 1386 1385 1381 1377 1375 1373 1370 1366 1362 1358 1354 1351 1348
1478 1476 1475 1474 1473 1471 1468 1466 1464 1459 1456 1453 1448 1444 1440 1436 1431 1426 1422 1418 1415 1411 1408 1405 1400 1397 1394 1391 1388 1384 1380 1378 1375 1372 1370 1367 1363 1360 1357 1354 1351 1348 1344 1342
1477 1475 1473 1471 1468 1466 1462 1459 1456 1453 1449 1445 1440 1436 1431 1427 1422 1417 1413 1409 1405 1400 1397 1395 1391 1389 1386 1383 1379 1375 1372 1369 1366 1363 1360 1358 1355 1352 1349 1347 1344 1341 1337 1335
1473 1471 1469 1466 1464 1460 1456 1451 1448 1444 1440 1436 1431 1426 1422 1418 1414 1409 1405 1400 1397 1392 1387 1386 1383 1380 1377 1374 1371 1366 1363 1360 1358 1355 1352 1349 1346 1344 1341 1339 1336 1333 1330 1327
1468 1466 1463 1459 1456 1453 1448 1445 1441 1436 1432 1428 1424 1419 1413 1409 1405 1400 1396 1391 1389 1385 1380 1377 1373 1370 1367 1364 1362 1358 1355 1352 1349 1346 1344 1340 1337 1335 1333 1330 1328 1326 1323 1320
1463 1459 1455 1451 1447 1443 1440 1436 1432 1427 1423 1420 1416 1411 1406 1401 1397 1393 1388 1383 1379 1377 1373 1369 1366 1362 1359 1356 1353 1350 1347 1344 1341 1338 1335 1332 1330 1327 1325 1323 1321 1319 1316 1314
1456 1452 1447 1443 1438 1433 1430 1427 1423 1419 1415 1411 1408 1404 1399 1393 1389 1385 1381 1377 1372 1368 1365 1361 1358 1355 1351 1348 1345 1342 1339 1336 1333 1330 1327 1325 1322 1320 1318 1316 1314 1312 1310 1307
1449 1445 1440 1436 1431 1426 1422 1419 1415 1411 1407 1403 1399 1395 1391 1387 1383 1378 1372 1369 1365 1361 1358 1354 1350 1347 1345 1341 1338 1334 1331 1328 1326 1323 1320 1318 1316 1314 1312 1310 1308 1306 1303 1300
1442 1437 1433 1429 1424 1419 1415 1411 1408 1404 1400 1396 1392 1388 1384 1379 1375 1372 1367 1362 1358 1354 1350 1347 1343 1340 1337 1333 1330 1327 1324 1321 1319 1316 1314 1312 1310 1308 1306 1304 1301 1299 1297 1294
1435 1431 1426 1422 1418 1414 1410 1405 1401 1397 1393 1389 1385 1382 1378 1374 1370 1363 1359 1355 1351 1347 1343 1339 1336 1333 1330 1327 1324 1321 1318 1315 1312 1310 1308 1306 1304 1302 1300 1297 1295 1293 1290 1287
1429 1425 1421 1418 1414 1410 1405 1401 1397 1392 1388 1383 1379 1376 1371 1367 1363 1358 1353 1349 1345 1341 1337 1334 1330 1327 1324 1322 1319 1316 1313 1310 1308 1306 1304 1301 1299 1296 1294 1292 1289 1287 1284 1282
1424 1421 1416 1412 1409 1405 1402 1398 1392 1386 1383 1379 1373 1370 1366 1361 1357 1352 1348 1344 1340 1336 1333 1330 1327 1324 1320 1317 1315 1312 1309 1307 1304 1301 1298 1296 1293 1291 1289 1287 1284 1282 1280 1276
Wind_Speed
6 7 4 5 9 10 11 14 9 15 8 15 2 5 21 26 27 24 22 20 19 22 32 30 25 28 30 28 25 22 21 20 20 20 22 23 23 21 20 19 19 19 18 17
5 6 9 7 13 12 20 17 15 18 18 13 15 18 20 25 23 22 26 24 23 24 22 19 28 27 27 28 25 23 21 21 21 23 24 26 25 23 22 21 20 21 20 19
5 3 4 6 17 17 5 6 8 11 6 4 5 12 17 18 18 21 26 23 19 20 18 15 20 21 22 23 21 22 21 22 23 25 26 27 26 25 24 22 21 22 21 20
3 3 4 6 2 7 9 4 3 5 4 4 6 15 8 23 25 29 31 29 24 21 19 16 16 19 21 21 22 21 21 24 25 26 26 26 25 26 25 24 23 22 21 19
3 4 6 10 1 4 6 2 3 5 4 7 17 10 7 26 24 23 26 25 25 24 23 21 20 18 17 19 19 21 25 26 25 25 26 25 26 25 25 24 22 21 19 19
3 4 6 4 2 2 4 3 10 11 9 11 13 4 4 26 24 23 24 24 21 18 18 17 12 12 15 18 22 23 23 25 25 24 26 27 25 23 22 22 22 20 21 22
10 5 6 6 5 2 3 2 6 9 8 10 3 6 16 24 26 23 20 20 14 10 10 11 14 18 21 22 23 24 27 28 27 23 22 22 23 23 22 21 20 21 23 21
4 4 8 11 5 2 2 1 6 13 13 13 13 17 19 19 20 22 24 22 18 16 14 14 15 17 17 15 15 17 14 14 17 19 17 16 17 18 18 19 20 20 22 23
7 4 8 13 12 6 2 1 5 8 11 12 11 13 16 18 21 21 22 23 22 22 22 22 21 17 17 17 17 15 12 14 16 17 17 17 18 18 20 20 21 23 24 26
3 3 4 3 4 5 4 3 3 5 8 10 12 14 16 18 19 20 21 22 22 23 24 24 24 23 20 16 15 16 17 18 20 21 21 19 21 22 22 23 23 25 27 28
4 3 3 6 5 4 3 5 6 8 10 11 13 15 17 18 19 20 20 21 22 23 24 23 23 23 23 22 22 23 23 23 25 27 26 25 27 29 29 29 26 28 30 29
4 3 0 4 3 5 7 7 6 7 9 10 13 15 17 20 21 21 21 22 23 24 24 24 24 26 25 22 22 25 27 27 28 27 26 26 26 27 26 26 25 26 26 25
2 2 3 5 3 5 4 6 9 12 13 17 18 18 21 24 26 25 24 24 25 26 27 27 26 26 25 25 25 26 28 29 28 27 26 25 27 29 32 33 30 28 27 25
2 3 1 2 0 5 9 9 13 16 19 21 23 25 26 28 31 28 28 28 29 29 29 28 28 29 28 27 27 28 28 27 27 28 28 28 27 29 30 32 33 32 27 26
1 2 1 4 7 9 13 17 21 24 26 28 29 31 32 33 33 32 33 32 31 32 32 32 32 33 31 28 27 28 28 28 27 28 28 28 30 31 31 30 31 34 35 31
4 6 7 11 14 18 19 22 25 29 31 32 32 33 33 34 35 36 37 36 33 34 35 35 35 33 27 25 25 26 26 27 29 30 29 30 30 31 31 31 31 31 32 31
9 11 13 17 20 23 25 27 28 30 32 33 34 34 35 36 37 39 39 39 37 37 36 36 35 27 25 26 26 27 28 29 30 27 30 30 28 29 28 26 26 27 29 28
13 15 16 19 23 25 29 30 31 31 31 31 32 33 35 35 36 38 38 36 36 37 37 33 27 25 26 28 29 28 28 29 28 28 29 28 26 24 24 24 26 28 28 27
18 19 18 21 24 26 29 31 32 33 33 33 33 34 35 37 38 38 37 37 36 35 36 30 28 27 28 29 28 28 28 28 29 30 28 27 28 27 27 27 27 26 25 26
21 22 26 28 29 30 33 32 31 31 30 31 32 32 33 34 33 34 34 35 34 34 33 31 27 26 27 29 29 29 29 28 27 27 29 29 28 30 29 26 24 24 24 24
24 27 29 29 32 33 30 30 30 33 34 30 29 30 30 31 30 29 30 32 32 29 27 26 25 25 27 28 27 25 25 28 30 30 29 27 26 24 24 23 23 23 25 25
27 31 32 30 31 34 33 34 33 32 30 29 29 28 28 29 29 30 30 30 31 28 27 27 26 26 27 26 27 30 31 30 28 26 26 24 23 23 22 22 22 23 22 22
28 28 30 31 32 34 34 30 28 26 28 28 28 27 26 27 28 29 32 29 29 28 27 29 28 26 27 28 30 29 24 23 24 24 24 21 20 20 20 21 21 22 23 24
29 30 30 28 27 27 28 28 28 27 27 26 26 25 26 28 30 30 31 32 30 28 27 28 28 25 24 25 24 23 24 23 25 22 19 19 18 18 20 21 21 21 23 24
26 26 26 26 27 26 27 27 27 26 28 27 26 26 26 29 33 35 31 31 28 28 27 24 24 23 24 24 24 24 23 20 18 18 19 16 20 20 20 21 21 21 22 23
25 25 25 23 23 24 22 23 26 30 31 30 31 32 31 28 29 28 24 22 21 23 22 22 21 18 17 18 16 18 16 14 14 14 17 21 20 19 19 19 19 19 20 22
25 23 24 25 23 21 25 28 27 27 26 30 29 28 28 26 24 22 22 21 21 19 18 18 18 16 17 18 17 16 14 15 18 20 20 18 18 18 18 17 18 18 21 20
Wind_Direction
239 223 224 224 242 194 200 219 200 255 194 257 344 263 297 307 311 313 321 316 309 295 270 261 261 254 247 252 258 254 250 256 270 278 279 281 281 282 283 286 289 289 285 282
279 243 226 240 246 222 217 233 241 263 285 302 327 329 305 309 322 330 339 322 322 320 308 279 260 266 256 252 252 246 246 259 273 275 278 280 277 275 274 278 284 286 284 278
259 328 309 273 231 234 176 219 216 231 259 352 351 349 353 12 20 3 356 352 335 334 326 295 272 271 256 254 249 242 250 265 275 279 280 280 276 270 269 273 278 283 280 276
246 8 254 251 219 204 212 17 238 42 45 24 346 342 360 14 358 351 350 345 337 328 329 315 290 272 263 251 242 248 259 272 280 280 280 279 274 270 268 270 274 278 276 275
210 207 293 305 263 144 158 151 63 77 9 336 346 334 0 357 356 351 343 334 328 320 312 301 286 271 254 250 256 268 278 281 284 284 281 279 275 273 271 268 273 276 274 277
149 212 236 236 8 19 70 149 40 44 24 3 6 21 294 340 345 337 333 330 316 304 299 286 272 265 265 271 278 284 287 286 283 282 279 278 278 278 271 272 276 274 273 283
224 254 287 266 326 133 170 156 45 29 21 9 3 316 316 328 331 335 340 333 315 302 305 295 279 280 284 286 286 291 293 294 287 277 274 271 272 275 273 273 273 274 281 284
189 208 265 343 53 127 7 304 344 351 346 335 325 321 322 326 331 331 329 327 320 315 311 306 300 285 279 279 284 278 281 298 302 301 288 279 277 280 282 280 279 281 283 283
187 209 99 71 114 132 51 352 325 320 326 327 337 342 347 344 349 352 352 347 338 328 318 308 303 303 296 292 298 301 316 320 311 304 306 305 298 290 287 287 288 287 288 287
12 113 98 94 82 29 10 336 340 4 6 11 18 22 16 11 5 5 8 6 5 1 357 351 340 322 313 315 321 323 316 311 308 306 310 308 308 303 298 294 292 289 287 286
262 132 119 100 48 35 56 43 51 56 51 26 2 6 353 347 344 345 344 340 338 337 334 331 328 326 329 329 332 326 310 305 299 299 302 308 304 297 299 295 291 288 285 286
261 113 57 304 355 64 78 68 41 5 3 347 341 341 336 334 334 334 332 334 330 327 324 323 322 320 318 316 307 294 293 295 295 295 293 291 289 290 286 287 289 284 281 283
86 44 269 279 103 75 19 343 333 332 327 322 327 325 326 325 326 323 322 323 323 319 317 317 314 311 310 308 308 307 304 304 302 296 292 287 286 290 294 292 287 286 287 288
290 162 111 98 89 341 331 327 321 318 317 317 320 319 318 316 316 315 314 315 316 315 313 314 313 309 311 310 306 302 303 303 300 298 297 296 294 293 294 296 298 294 289 289
59 164 235 308 325 326 321 318 316 315 317 314 314 315 315 315 314 313 313 313 311 312 310 313 311 309 312 309 304 302 300 297 296 295 294 295 297 297 296 294 294 296 299 297
278 290 306 304 307 315 317 315 317 314 313 313 312 310 310 311 310 310 310 312 311 310 310 310 309 312 313 312 309 304 297 296 300 297 294 295 294 294 295 295 295 295 296 300
308 313 321 318 320 318 315 314 314 313 313 311 310 310 307 307 307 306 307 309 310 309 307 308 308 310 311 311 310 306 300 297 298 295 295 297 294 295 296 295 295 297 297 301
327 315 313 312 313 312 309 309 310 310 308 309 308 307 305 306 305 306 309 310 308 307 306 311 309 309 306 308 309 306 300 298 298 298 301 300 301 300 300 299 298 298 300 301
321 316 316 316 316 314 311 313 312 311 310 311 311 308 307 305 304 305 306 304 305 306 308 313 309 305 302 305 307 303 301 300 299 300 299 298 298 297 298 298 298 299 299 302
318 315 317 317 316 314 311 312 312 312 313 315 315 312 311 311 311 307 305 303 304 304 309 309 308 303 304 306 307 303 301 300 300 300 301 301 298 298 300 300 299 300 302 303
316 314 312 312 311 311 312 314 314 312 313 314 312 313 311 311 311 313 313 312 311 314 313 308 304 302 305 308 306 304 302 302 301 302 303 303 302 300 301 301 301 301 303 302
318 316 314 314 314 311 313 315 314 312 312 311 313 313 314 312 315 318 313 309 317 317 314 311 309 309 310 308 303 300 301 301 303 302 302 303 304 306 305 302 299 299 300 301
317 315 313 313 313 310 311 313 315 316 315 315 316 316 315 314 317 318 316 319 317 316 312 309 310 307 304 300 298 301 302 303 304 301 297 301 299 301 303 302 301 300 302 304
315 314 314 314 315 316 319 324 323 321 319 320 321 321 320 320 318 318 316 314 314 314 311 308 306 305 304 303 304 301 307 307 305 305 306 300 296 299 301 301 300 303 302 303
322 321 324 327 325 325 323 324 326 330 329 326 325 325 323 319 316 317 316 314 314 312 312 313 310 308 308 307 303 303 309 307 304 306 308 314 312 305 302 302 302 301 301 300
329 330 326 326 324 326 327 328 323 318 318 315 310 312 317 320 315 315 319 319 318 316 315 317 320 319 317 320 318 322 317 316 314 313 309 310 308 305 305 305 305 306 310 310
332 330 333 325 331 333 326 324 323 326 326 322 321 324 321 324 326 327 329 327 325 328 327 324 322 322 322 321 319 319 318 313 313 313 312 310 309 307 307 307 306 303 305 312